Red Bluff, CA

8:26 AM PST on November 12, 2019 (GMT -0800)
Red Bluff Municipal

Weather History for KRBL - September, 2019

Change the Weather History Date:

Tuesday, September 10, 2019

  Actual Average Record
Temperature  
Mean Temperature 72 °F -  
Max Temperature 84 °F 91 °F 109 °F (1944)
Min Temperature 59 °F 60 °F 50 °F (1946)
Cooling Degree Days 6    
Growing Degree Days 22 (Base 50)    
Moisture  
Dew Point 47 °F    
Average Humidity 42    
Maximum Humidity 62    
Minimum Humidity 16    
Precipitation  
Precipitation 0.00 in - - ()
Sea Level Pressure  
Sea Level Pressure 29.87 in    
Wind  
Wind Speed 5 mph (ESE)    
Max Wind Speed 10 mph    
Max Gust Speed -    
Visibility 10 miles    
Events      
Averages and records for this station are not official NWS values.
T = Trace of Precipitation, MM = Missing Value Source: NWS Daily Summary

Daily Weather History Graph

Daily Weather History Graph

Search for Another Location

Airport or City:

Astronomy

Sep. 10, 2019 Rise Set
Actual Time 6:45 AM PDT 7:26 PM PDT
Civil Twilight 6:17 AM PDT 7:53 PM PDT
Nautical Twilight 5:45 AM PDT 8:25 PM PDT
Astronomical Twilight 5:11 AM PDT 8:59 PM PDT
Moon 6:06 PM PDT (9/10) 3:15 AM PDT (9/10)
Length of Visible Light 13h 35m
Length of Day
12h 41m
Waxing Gibbous, 90% of the Moon is Illuminated
Sep 10
Waxing Gibbous
Sep 13
Full
Sep 21
Last Quarter
Sep 28
New
Oct 5
First Quarter

Hourly Weather History & Observations

Time (PDT) Temp. Dew Point Humidity Pressure Visibility Wind Dir Wind Speed Gust Speed Precip Events Conditions
12:54 AM 70.0 °F 39.9 °F 33% 29.82 in 10.0 mi NNW 9.2 mph - N/A   Mostly Cloudy
1:54 AM 68.0 °F 41.0 °F 37% 29.82 in 10.0 mi NNE 3.5 mph - N/A   Scattered Clouds
2:54 AM 68.0 °F 42.1 °F 39% 29.83 in 10.0 mi Calm Calm - N/A   Mostly Cloudy
3:54 AM 64.0 °F 42.1 °F 45% 29.84 in 10.0 mi South 6.9 mph - N/A   Scattered Clouds
4:54 AM 63.0 °F 46.0 °F 54% 29.86 in 10.0 mi SE 4.6 mph - N/A   Scattered Clouds
5:54 AM 64.0 °F 50.0 °F 60% 29.86 in 10.0 mi Calm Calm - N/A   Partly Cloudy
6:54 AM 59.0 °F 46.0 °F 62% 29.88 in 10.0 mi NNW 3.5 mph - N/A   Scattered Clouds
7:54 AM 63.0 °F 46.9 °F 56% 29.89 in 10.0 mi Calm Calm - N/A   Clear
8:54 AM 66.9 °F 50.0 °F 54% 29.90 in 10.0 mi Variable 4.6 mph - N/A   Clear
9:54 AM 69.1 °F 48.0 °F 47% 29.91 in 10.0 mi Calm Calm - N/A   Clear
10:54 AM 72.0 °F 48.0 °F 43% 29.91 in 10.0 mi East 5.8 mph - N/A   Clear
11:54 AM 75.9 °F 46.9 °F 36% 29.90 in 10.0 mi ESE 5.8 mph - N/A   Clear
12:54 PM 77.0 °F 46.0 °F 33% 29.88 in 10.0 mi Calm Calm - N/A   Clear
1:54 PM 80.1 °F 45.0 °F 29% 29.86 in 10.0 mi Calm Calm - N/A   Clear
2:54 PM 82.0 °F 44.1 °F 26% 29.84 in 10.0 mi Calm Calm - N/A   Clear
3:54 PM 82.9 °F 44.1 °F 25% 29.83 in 10.0 mi North - - N/A   Clear
4:54 PM 82.9 °F 44.1 °F 25% 29.83 in 10.0 mi SSE 6.9 mph - N/A   Clear
5:54 PM 81.0 °F 46.0 °F 29% 29.83 in 10.0 mi SE 9.2 mph - N/A   Clear
6:54 PM 79.0 °F 48.9 °F 35% 29.83 in 10.0 mi SSE 10.4 mph - N/A   Clear
7:54 PM 73.9 °F 50.0 °F 43% 29.86 in 10.0 mi SSE 6.9 mph - N/A   Clear
8:54 PM 70.0 °F 50.0 °F 49% 29.88 in 10.0 mi South 5.8 mph - N/A   Clear
9:54 PM 69.1 °F 50.0 °F 51% 29.91 in 10.0 mi East 4.6 mph - N/A   Clear
10:54 PM 66.0 °F 51.1 °F 59% 29.92 in 10.0 mi North 3.5 mph - N/A   Clear
11:54 PM 66.9 °F 51.1 °F 57% 29.93 in 10.0 mi North 3.5 mph - N/A   Clear